Regional Weather Roundup
Issued by NWS Little Rock, AR

Home | Current Version | Previous Version | Text Only | Print | Product List | Glossary Off
Versions: 1 2 3 4 5 6 7 8 9 10 11 12 13 14 15 16 17 18 19 20 21 22 23 24 25 26 27 28 29 30 31 32 33 34 35 36 37 38 39 40 41 42 43 44 45 46 47 48

000
ASUS44 KLZK 281205
RWRLZK

WEATHER ROUNDUP FOR ARKANSAS
NATIONAL WEATHER SERVICE LITTLE ROCK AR
700 AM CDT TUE JUL 28 2015

NOTE: "FAIR" INDICATES FEW OR NO CLOUDS BELOW 12,000 FEET WITH NO
SIGNIFICANT WEATHER AND/OR OBSTRUCTIONS TO VISIBILITY.

ARZ001-003-010-029-281300-
NORTHWEST ARKANSAS

CITY           SKY/WX    TMP DP  RH WIND       PRES   REMARKS
FAYETTEVILLE   CLEAR     74  71  91 CALM      29.99R
6HR MIN TEMP:  73; 6HR MAX TEMP:  79;

FORT SMITH     CLEAR     78  73  84 E5        29.94R
6HR MIN TEMP:  77; 6HR MAX TEMP:  84;

HARRISON       CLEAR     75  71  87 CALM      30.01R
6HR MIN TEMP:  74; 6HR MAX TEMP:  80;

BENTONVILLE    CLEAR     75  68  78 S3        29.99R
6HR MIN TEMP:  75; 6HR MAX TEMP:  81;

ROGERS         CLEAR     76  71  85 S3        30.00R
6HR MIN TEMP:  75; 6HR MAX TEMP:  80;

SILOAM SPGS    CLEAR     75  64  69 CALM      29.97R
6HR MIN TEMP:  73; 6HR MAX TEMP:  81;

HIGHFILL       CLEAR     76  72  87 S3        29.98R
6HR MIN TEMP:  75; 6HR MAX TEMP:  80;

SPRINGDALE     CLEAR     77  70  78 S7        30.01R
$$

ARZ004-005-016-281300-
NORTH CENTRAL ARKANSAS

CITY           SKY/WX    TMP DP  RH WIND       PRES   REMARKS
BATESVILLE     CLEAR     77  73  88 CALM      29.97R
6HR MIN TEMP:  75; 6HR MAX TEMP:  81;

FLIPPIN        CLEAR     73  70  88 CALM      29.96R
6HR MIN TEMP:  72; 6HR MAX TEMP:  75;

MTN HOME       CLEAR     75  73  93 CALM      29.98R
6HR MIN TEMP:  72; 6HR MAX TEMP:  77;

$$

ARZ040-041-281300-
WEST CENTRAL ARKANSAS

CITY           SKY/WX    TMP DP  RH WIND       PRES   REMARKS
MENA           CLEAR     73  72  94 CALM      29.99R
MOUNT IDA      CLEAR     73  71  93 CALM      29.96R FOG
6HR MIN TEMP:  72; 6HR MAX TEMP:  76;

$$

ARZ009-017-025-026-028-281300-
NORTHEAST ARKANSAS

CITY           SKY/WX    TMP DP  RH WIND       PRES   REMARKS
JONESBORO        N/A     78  77  96 CALM      29.97R
6HR MIN TEMP:  75; 6HR MAX TEMP:  78;

NEWPORT        CLEAR     79  77  94 SE3       29.97R
6HR MIN TEMP:  78; 6HR MAX TEMP:  82;

WALNUT RIDGE   CLEAR     79  75  89 S3        29.96S
6HR MIN TEMP:  77; 6HR MAX TEMP:  81;

BLYTHEVILLE    CLEAR     80  79  96 S3        29.97R HX  88
6HR MIN TEMP:  79; 6HR MAX TEMP:  82;

$$

ARZ022-023-033-042-044-281300-
CENTRAL ARKANSAS

CITY           SKY/WX    TMP DP  RH WIND       PRES   REMARKS
LITTLE ROCK    CLEAR     80  74  81 CALM      29.96R HX  85
6HR MIN TEMP:  80; 6HR MAX TEMP:  84;

N LITTLE ROCK    N/A     80  76  87 SW3       29.96R HX  86
6HR MIN TEMP:  79; 6HR MAX TEMP:  83;

JACKSONVILLE   CLEAR     77  75  93 CALM      29.96R FOG
6HR MIN TEMP:  76; 6HR MAX TEMP:  83;

SEARCY         CLEAR     77  76  96 CALM      29.97R FOG
6HR MIN TEMP:  75; 6HR MAX TEMP:  78;

HOT SPRINGS    CLEAR     77  73  87 CALM      29.97R
6HR MIN TEMP:  76; 6HR MAX TEMP:  82;

RUSSELLVILLE   CLEAR     75  73  93 CALM      29.95R
6HR MIN TEMP:  74; 6HR MAX TEMP:  78;

CLINTON        FAIR      73  73 100 CALM      29.99R FOG
$$

ARZ036-281300-
EAST ARKANSAS

CITY           SKY/WX    TMP DP  RH WIND       PRES   REMARKS
WEST MEMPHIS   CLEAR     78  78 100 S3        29.96R
6HR MIN TEMP:  76; 6HR MAX TEMP:  79;

$$

ARZ050-053-066-070-073-281300-
SOUTHWEST ARKANSAS

CITY           SKY/WX    TMP DP  RH WIND       PRES   REMARKS
ARKADELPHIA    FAIR      76  76 100 CALM      29.96S FOG
6HR MIN TEMP:  76; 6HR MAX TEMP:  79;

CAMDEN         CLEAR     75  72  88 CALM      29.96R FOG
TEXARKANA      CLEAR     79  73  82 S7        29.96R
6HR MIN TEMP:  78; 6HR MAX TEMP:  85;

EL DORADO      CLEAR     75  73  93 CALM      29.98R FOG
6HR MIN TEMP:  75; 6HR MAX TEMP:  80;

DE QUEEN       CLEAR     74  73  97 CALM      29.94R FOG
6HR MIN TEMP:  73; 6HR MAX TEMP:  78;

$$

ARZ056-057-069-281300-
SOUTHEAST ARKANSAS

CITY           SKY/WX    TMP DP  RH WIND       PRES   REMARKS
PINE BLUFF     CLEAR     77  74  90 CALM      29.97R
6HR MIN TEMP:  76; 6HR MAX TEMP:  81;

STUTTGART      CLEAR     79  72  78 S6        29.96R
6HR MIN TEMP:  79; 6HR MAX TEMP:  84;

MONTICELLO     CLEAR     77  75  93 CALM      29.97R
6HR MIN TEMP:  76; 6HR MAX TEMP:  84;


$$




USA.gov is the U.S. government's official web portal to all federal, state and local government web resources and services.